Fairfield, IL

12:39 PM CST on December 15, 2019 (GMT -0600)
Fairfield Municipal

Weather History for KFWC - October, 2019

Change the Weather History Date:

Thursday, October 24, 2019

  Actual Average (KEVV) Record (KEVV)
Temperature  
Mean Temperature 50 °F -  
Max Temperature 56 °F 65 °F 82 °F (1934)
Min Temperature 44 °F 45 °F 23 °F (1981)
Degree Days  
Heating Degree Days 15    
Moisture  
Dew Point 45 °F    
Average Humidity 82    
Maximum Humidity 100    
Minimum Humidity 63    
Precipitation  
Precipitation 0.04 in - - ()
Sea Level Pressure  
Sea Level Pressure 30.23 in    
Wind  
Wind Speed 2 mph ()    
Max Wind Speed 7 mph    
Max Gust Speed -    
Visibility 10.0 miles    
Events Rain    
Averages and records for this station are not official NWS values.
T = Trace of Precipitation, MM = Missing Value Source: Averaged Metar Reports

Daily Weather History Graph

Daily Weather History Graph

Search for Another Location

Airport or City:

Astronomy

Oct. 24, 2019 Rise Set
Actual Time 7:11 AM CDT 6:03 PM CDT
Civil Twilight 6:44 AM CDT 6:30 PM CDT
Nautical Twilight 6:13 AM CDT 7:01 PM CDT
Astronomical Twilight 5:42 AM CDT 7:32 PM CDT
Moon 2:46 AM CDT (10/24) 4:26 PM CDT (10/24)
Length of Visible Light 11h 46m
Length of Day
10h 52m
Waning Crescent, 16% of the Moon is Illuminated
Oct 24
Waning Crescent
Oct 27
New
Nov 4
First Quarter
Nov 12
Full
Nov 19
Last Quarter

Hourly Weather History & Observations

Time (CDT) Temp. Dew Point Humidity Pressure Visibility Wind Dir Wind Speed Gust Speed Precip Events Conditions
12:15 AM 51.1 °F 39.7 °F 65% 30.11 in 10.0 mi South 4.6 mph - N/A   Clear
12:35 AM 51.4 °F 40.1 °F 65% 30.11 in 10.0 mi South 4.6 mph - N/A   Clear
12:55 AM 51.4 °F 40.1 °F 65% 30.11 in 10.0 mi South 4.6 mph - N/A   Scattered Clouds
1:15 AM 51.8 °F 40.5 °F 65% 30.12 in 10.0 mi South 3.5 mph - N/A   Mostly Cloudy
1:35 AM 52.3 °F 41.0 °F 65% 30.12 in 10.0 mi South 4.6 mph - N/A   Overcast
1:55 AM 52.7 °F 41.0 °F 64% 30.12 in 10.0 mi South 3.5 mph - N/A   Overcast
2:15 AM 53.1 °F 41.4 °F 64% 30.12 in 10.0 mi South 3.5 mph - N/A   Overcast
2:35 AM 53.6 °F 41.5 °F 64% 30.12 in 10.0 mi South 3.5 mph - N/A   Overcast
2:55 AM 53.8 °F 41.9 °F 64% 30.12 in 10.0 mi Calm Calm - N/A   Overcast
3:15 AM 53.6 °F 41.4 °F 63% 30.13 in 10.0 mi Calm Calm - N/A   Mostly Cloudy
3:35 AM 52.2 °F 41.7 °F 68% 30.13 in 10.0 mi South 3.5 mph - N/A   Scattered Clouds
3:55 AM 51.1 °F 41.5 °F 70% 30.13 in 10.0 mi Calm Calm - N/A   Clear
4:15 AM 47.7 °F 41.9 °F 80% 30.14 in 10.0 mi Calm Calm - N/A   Clear
4:35 AM 47.5 °F 42.4 °F 83% 30.14 in 10.0 mi Calm Calm - N/A   Clear
4:55 AM 47.3 °F 42.3 °F 83% 30.15 in 10.0 mi Calm Calm - N/A   Clear
5:15 AM 46.2 °F 43.2 °F 89% 30.15 in 10.0 mi Calm Calm - N/A   Clear
5:35 AM 46.9 °F 42.4 °F 84% 30.16 in 10.0 mi Calm Calm - N/A   Clear
6:15 AM 44.1 °F 42.6 °F 95% 30.17 in 10.0 mi Calm Calm - N/A   Mostly Cloudy
6:35 AM 45.5 °F 43.9 °F 94% 30.18 in 10.0 mi Calm Calm - N/A   Overcast
6:55 AM 45.9 °F 44.2 °F 94% 30.20 in 10.0 mi Calm Calm - N/A   Overcast
7:15 AM 48.7 °F 43.3 °F 82% 30.21 in 10.0 mi Calm Calm - N/A   Overcast
7:35 AM 47.8 °F 43.5 °F 85% 30.21 in 10.0 mi Calm Calm - N/A   Mostly Cloudy
7:55 AM 50.9 °F 44.6 °F 79% 30.22 in 10.0 mi Calm Calm - N/A   Overcast
8:15 AM 51.4 °F 44.8 °F 78% 30.23 in 10.0 mi Calm Calm - N/A   Overcast
8:35 AM 51.8 °F 45.0 °F 77% 30.24 in 10.0 mi North 4.6 mph - N/A   Overcast
9:15 AM 51.8 °F 45.5 °F 79% 30.26 in 10.0 mi NNW 3.5 mph - N/A   Overcast
9:35 AM 51.8 °F 45.5 °F 79% 30.26 in 10.0 mi North 5.8 mph - N/A   Overcast
9:55 AM 52.0 °F 45.5 °F 79% 30.27 in 10.0 mi North 5.8 mph - N/A   Overcast
10:15 AM 52.5 °F 45.5 °F 77% 30.27 in 10.0 mi NNW 4.6 mph - N/A   Overcast
10:35 AM 53.2 °F 45.0 °F 73% 30.27 in 10.0 mi North 4.6 mph - N/A   Scattered Clouds
10:55 AM 54.1 °F 45.1 °F 72% 30.27 in 10.0 mi North 4.6 mph - N/A   Mostly Cloudy
11:15 AM 54.9 °F 45.0 °F 69% 30.28 in 10.0 mi North 3.5 mph - N/A   Overcast
11:35 AM 56.1 °F 45.3 °F 67% 30.27 in 10.0 mi North 5.8 mph - N/A   Overcast
11:55 AM 55.6 °F 44.8 °F 67% 30.27 in 10.0 mi North 6.9 mph - N/A   Mostly Cloudy
12:15 PM 55.2 °F 45.1 °F 69% 30.27 in 10.0 mi North 4.6 mph - N/A   Mostly Cloudy
12:35 PM 54.9 °F 44.8 °F 69% 30.27 in 10.0 mi North 5.8 mph - N/A   Overcast
12:55 PM 54.5 °F 44.6 °F 69% 30.27 in 10.0 mi North 4.6 mph - N/A   Overcast
1:15 PM 54.5 °F 44.8 °F 70% 30.26 in 10.0 mi North 3.5 mph - N/A   Overcast
1:35 PM 54.1 °F 45.7 °F 73% 30.25 in 10.0 mi North 5.8 mph - N/A   Light Drizzle
1:55 PM 53.1 °F 46.0 °F 77% 30.26 in 10.0 mi North 3.5 mph - N/A Rain Light Rain
2:15 PM 52.9 °F 45.9 °F 77% 30.25 in 10.0 mi North 4.6 mph - N/A   Light Drizzle
2:35 PM 53.1 °F 46.4 °F 78% 30.26 in 10.0 mi NNW 3.5 mph - N/A Rain Light Rain
2:55 PM 52.2 °F 46.2 °F 80% 30.26 in 10.0 mi NNW 4.6 mph - N/A Rain Light Rain
3:15 PM 51.8 °F 46.9 °F 83% 30.26 in 10.0 mi Calm Calm - N/A Rain Light Rain
3:35 PM 50.9 °F 46.9 °F 86% 30.26 in 10.0 mi NNW 3.5 mph - 0.01 in Rain Light Rain
3:55 PM 50.9 °F 47.5 °F 88% 30.27 in 10.0 mi Calm Calm - 0.01 in Rain Light Rain
4:15 PM 50.7 °F 47.8 °F 90% 30.28 in 10.0 mi Calm Calm - N/A Rain Light Rain
4:35 PM 50.4 °F 49.3 °F 96% 30.28 in 7.0 mi NNW 3.5 mph - 0.02 in Rain Light Rain
4:55 PM 50.2 °F 49.3 °F 97% 30.27 in 10.0 mi NNW 4.6 mph - 0.03 in Rain Light Rain
5:15 PM 49.6 °F 48.6 °F 96% 30.26 in 10.0 mi North 5.8 mph - N/A Rain Rain
5:35 PM 49.3 °F 47.7 °F 94% 30.28 in 10.0 mi North 3.5 mph - N/A   Overcast
5:55 PM 49.1 °F 47.5 °F 94% 30.28 in 10.0 mi Calm Calm - N/A   Overcast
6:15 PM 48.7 °F 47.5 °F 95% 30.28 in 10.0 mi Calm Calm - N/A   Overcast
6:35 PM 48.4 °F 47.3 °F 96% 30.27 in 10.0 mi Calm Calm - N/A   Overcast
6:55 PM 48.4 °F 47.3 °F 96% 30.28 in 10.0 mi Calm Calm - N/A   Overcast
7:15 PM 48.4 °F 47.3 °F 96% 30.28 in 10.0 mi Calm Calm - N/A   Overcast
7:35 PM 48.4 °F 47.1 °F 95% 30.29 in 10.0 mi Calm Calm - N/A   Overcast
7:55 PM 48.2 °F 47.5 °F 97% 30.29 in 10.0 mi Calm Calm - N/A   Overcast
8:35 PM 48.4 °F 47.5 °F 97% 30.28 in 10.0 mi North 3.5 mph - N/A   Overcast
8:55 PM 48.4 °F 47.7 °F 97% 30.27 in 10.0 mi NNE 3.5 mph - N/A   Overcast
9:15 PM 48.4 °F 47.7 °F 97% 30.28 in 10.0 mi Calm Calm - N/A   Mostly Cloudy
9:35 PM 48.2 °F 48.2 °F 100% 30.30 in 10.0 mi Calm Calm - N/A   Overcast
9:55 PM 48.2 °F 48.2 °F 100% 30.30 in 10.0 mi Calm Calm - N/A   Overcast
10:15 PM 48.2 °F 48.2 °F 100% 30.31 in 10.0 mi Calm Calm - N/A   Overcast
10:35 PM 48.2 °F 48.2 °F 100% 30.31 in 10.0 mi Calm Calm - N/A   Overcast
10:55 PM 48.2 °F 47.3 °F 97% 30.31 in 10.0 mi NNW 3.5 mph - N/A   Overcast
11:15 PM 48.2 °F 46.6 °F 94% 30.30 in 10.0 mi Calm Calm - N/A   Overcast
11:35 PM 48.2 °F 46.4 °F 93% 30.30 in 10.0 mi Calm Calm - N/A   Overcast
11:55 PM 48.2 °F 46.0 °F 92% 30.31 in 10.0 mi Calm Calm - N/A   Overcast